Location: ?p Thanh B�nh
(16.5833°N, 107.5333°E)
Time: 08:23:10
(UTC+00:00)

Geosat - Pass Details

Date: 29 October 2020
Orbit: 763 x 766 km, 108.0° (Epoch: 02 December)

Event Time Altitude Azimuth Distance (km) Brightness Sun altitude
Rises 22:15:20 0° 155° (SSE) 3,212 7.8 -8.2°
Reaches altitude 10° 22:17:37 10° 155° (SSE) 2,287 7.0 -7.6°
Maximum altitude 22:22:36 82° 67° (ENE) 771 4.1 -6.5°
Drops below altitude 10° 22:27:36 10° 340° (NNW) 2,292 6.2 -5.3°
Sets 22:29:52 0° 340° (NNW) 3,219 6.9 -4.8°
